#timestamp,LO_Frequency,Hit,StdDev 
1514394015.6,286047000.3,P
1514394035.5,286046999.0,N
1514394055.3,286046995.5,N
1514394075.1,286046992.8,N
1514394095.9,286046982.2,Y
1514394115.7,286046976.5,P
1514394135.5,286046973.8,N
1514394155.4,286046965.3,P
1514394175.2,286046958.3,Y
1514394195.0,286046978.9,P
1514394195.9,286046978.9,P
1514394215.8,286046979.7,P
1514394235.6,286046976.6,Y
1514394255.4,286046993.7,P
1514394275.3,286046991.4,N
1514394295.1,286046985.8,N
1514394296.0,286046985.8,N
1514394315.8,286046983.9,Y
1514394335.7,286046994.2,P
1514394355.5,286046990.2,N
1514394375.3,286046989.8,P
1514394395.2,286046984.6,Y
1514394415.9,286046996.2,P
1514394435.7,286046993.4,N
1514394455.6,286046996.0,N
1514394475.4,286046993.9,N
1514394495.2,286046990.2,Y
1514394515.1,286046999.6,P
1514394516.0,286046999.6,N
1514394535.8,286046994.4,N
1514394555.6,286046988.8,Y
1514394575.5,286046990.4,P
1514394595.3,286046990.4,N
1514394615.1,286046990.0,P
1514394635.9,286046987.6,Y
1514394655.7,286046996.6,P
1514394675.5,286046997.1,N
1514394695.4,286046991.9,P
1514394715.2,286046991.9,Y
1514394735.0,286046996.6,P
1514394735.9,286046996.6,P
1514394755.8,286046999.5,N
1514394775.6,286046999.5,N
1514394795.4,286046997.2,N
1514394815.3,286046996.3,N
1514394835.1,286046996.2,N
1514394836.0,286046996.2,N
1514394855.8,286047002.6,N
1514394875.7,286047002.6,N
1514394895.5,286047004.2,N
1514394915.3,286047002.1,N
1514394935.1,286047000.6,N
1514394955.9,286047003.3,N
1514394975.7,286047001.9,N
1514394995.5,286047003.8,N
1514395015.4,286047000.0,N
1514395035.2,286047001.4,N
1514395055.0,286047004.7,N
1514395055.9,286047004.7,N
1514395075.8,286047002.7,N
1514395095.6,286046996.5,N
1514395115.4,286046996.6,N
1514395135.3,286046999.2,N
1514395155.1,286046999.5,N
1514395156.0,286046999.5,N
1514395175.8,286046995.3,N
1514395195.7,286046995.5,N
1514395215.5,286046992.4,N
1514395235.3,286046991.0,N
1514395255.1,286046990.3,N
1514395275.9,286046993.2,N
1514395295.7,286046992.7,N
1514395315.5,286046993.0,N
1514395335.4,286046993.5,N
1514395355.2,286046993.0,N
1514395375.0,286046992.4,N
1514395375.9,286046992.4,N
1514395395.8,286046993.0,N
1514395415.6,286046992.4,N
1514395435.4,286046992.0,N
1514395455.3,286046994.2,N
1514395475.1,286046993.9,N
1514395476.0,286046993.9,N
1514395495.8,286046996.0,N
1514395515.7,286046996.3,N
1514395535.5,286046995.6,N
1514395555.3,286046996.0,N
1514395575.1,286046995.2,N
1514395595.9,286046997.8,N
1514395615.7,286046997.2,N
1514395635.5,286046998.7,N
1514395655.4,286046999.5,N
1514395675.2,286047000.7,N
1514395695.0,286047000.2,N
1514395695.9,286047000.2,N
1514395715.8,286047001.4,N
1514395735.6,286047005.6,N
1514395755.4,286047004.9,N
1514395775.3,286047005.6,N
1514395795.1,286047003.2,N
1514395796.0,286047003.2,N
1514395815.8,286047003.8,N
1514395835.7,286047004.3,N
1514395855.5,286047005.9,N
1514395875.3,286047002.9,N
1514395895.2,286047007.1,N
1514395915.9,286047005.8,N
1514395935.7,286047007.5,N
1514395955.5,286047007.5,N
1514395975.4,286047005.2,N
1514395995.2,286047003.1,N
1514396015.0,286047005.5,N
1514396015.9,286047005.5,N
1514396035.8,286047005.5,N
1514396055.6,286047003.3,N
1514396075.4,286047007.4,N
1514396095.3,286047006.0,N
1514396115.1,286047002.6,N
1514396135.8,286046998.2,N
1514396155.7,286046998.3,N
1514396175.5,286046998.7,N
1514396195.3,286046998.3,N
1514396215.2,286046998.2,N
1514396235.9,286046999.3,N
1514396255.7,286046998.4,N
1514396275.6,286047000.3,N
1514396295.4,286046998.3,N
1514396315.2,286047002.0,N
1514396335.0,286046999.4,N
1514396336.0,286046999.4,N
1514396355.8,286046998.1,N
1514396375.6,286047001.2,N
1514396395.4,286046999.1,N
1514396415.3,286046999.7,N
1514396435.1,286046997.3,N
1514396455.8,286046996.1,N
1514396475.7,286046996.1,N
1514396495.5,286046997.4,N
1514396515.3,286046996.8,N
1514396535.2,286046991.7,N
1514396555.9,286046990.1,N
1514396575.7,286046989.5,N
1514396595.6,286046988.5,N
1514396615.4,286046991.5,N
1514396635.2,286046988.3,N
1514396655.0,286046988.3,N
1514396656.0,286046988.3,N
1514396675.8,286046987.1,N
1514396695.6,286046991.7,N
1514396715.4,286046998.6,N
1514396735.3,286047004.7,N
1514396755.1,286047006.9,N
1514396775.8,286047010.6,N
1514396795.7,286047013.9,N
1514396815.5,286047016.4,N
1514396835.3,286047020.7,N
1514396855.2,286047025.0,N
1514396875.9,286047025.5,N
1514396895.7,286047028.7,N
1514396915.6,286047033.3,N
1514396935.4,286047040.2,Y
1514396955.2,286047042.6,P
1514396975.1,286047043.3,N
1514396976.0,286047043.3,N
1514396995.8,286047046.4,N
1514397015.6,286047054.0,Y
1514397035.5,286047019.5,P
1514397055.3,286047021.1,N
1514397075.1,286047021.8,P
1514397095.9,286047017.3,N
1514397115.7,286047021.0,Y
1514397135.5,286047001.7,P
1514397155.4,286047002.4,N
1514397175.2,286047003.8,N
1514397195.0,286047001.1,N
1514397195.9,286047001.1,N
1514397215.8,286047003.4,N
1514397235.6,286047001.3,N
1514397255.4,286047002.6,N
1514397275.2,286047004.4,N
1514397295.1,286047004.8,N
1514397296.0,286047004.8,N
1514397315.8,286047005.3,N
1514397335.6,286047004.2,N
1514397355.5,286047000.7,N
1514397375.3,286047004.4,N
1514397395.1,286047002.7,N
1514397415.9,286047002.5,N
1514397435.7,286047002.9,N
1514397455.5,286047008.3,N
1514397475.4,286047003.0,N
1514397495.2,286047005.3,N
1514397515.0,286047007.9,N
1514397515.9,286047007.9,N
1514397535.8,286047013.6,Y
1514397555.6,286047008.5,P
1514397575.4,286047004.0,N
1514397595.3,286047007.2,P
